Temperature
18 18 18 18 18 18 18 18 18 18 18 18 18 18 18 18 18 18 18 18 18 18 18 18 18 18 18 18 18 17 17 17 17 17 17 17 17 17 17 17 17 17 17
18 18 18 18 18 18 18 17 17 17 17 17 17 17 18 18 18 18 18 18 18 18 18 18 18 18 18 18 18 18 17 17 17 17 17 17 17 17 17 17 17 17 17
18 18 18 18 18 18 17 17 17 17 17 17 17 17 17 17 17 18 18 18 18 18 18 18 18 18 18 18 18 18 18 17 17 17 17 17 17 17 17 17 17 16 16
18 18 18 18 18 17 17 17 17 17 17 17 17 17 17 17 17 17 17 18 18 18 18 18 18 18 18 18 18 18 18 18 17 17 17 17 17 17 17 17 17 16 16
18 18 18 18 18 17 17 17 17 17 17 17 17 17 17 17 17 17 17 17 17 18 18 18 18 18 18 18 18 18 18 18 18 17 17 17 17 17 17 17 17 17 16
18 18 18 18 18 18 17 17 17 17 17 16 17 17 17 17 17 17 17 17 17 17 17 17 17 18 18 18 18 18 18 18 18 17 17 17 17 17 17 17 17 17 17
17 18 18 18 18 18 18 17 17 17 17 17 17 17 17 17 17 17 17 17 17 17 17 17 17 17 18 18 18 18 17 18 17 18 17 17 17 17 17 17 17 17 17
17 17 18 18 18 18 18 18 18 17 17 17 16 17 17 17 17 16 16 16 16 16 17 17 17 17 17 18 18 18 18 17 17 17 17 17 17 17 17 17 17 17 17
17 17 17 18 18 18 18 18 18 17 17 17 17 16 16 16 16 16 16 16 16 16 16 17 17 17 17 17 18 18 18 17 17 17 17 17 17 17 17 17 17 17 17
17 17 17 17 17 17 17 17 17 17 17 17 17 16 16 16 16 16 16 16 16 16 16 16 16 17 17 17 17 18 17 17 17 17 17 17 17 17 17 17 17 17 17
16 16 16 16 16 16 17 17 17 17 17 17 16 16 16 16 15 15 15 16 16 16 15 16 16 16 17 17 17 17 17 17 17 17 17 17 17 17 17 17 17 17 17
15 15 15 15 15 15 16 16 16 16 16 16 16 16 16 15 15 15 14 15 15 16 15 15 16 16 16 16 17 17 17 17 17 17 17 17 17 17 17 16 16 17 17
14 14 14 14 14 14 15 15 15 15 15 16 16 16 15 15 15 14 14 14 14 14 15 15 15 15 15 16 16 16 16 16 17 17 17 17 17 16 16 16 16 16 16
13 13 13 13 13 13 13 14 14 14 14 15 15 15 15 15 15 14 14 14 13 13 14 14 14 15 15 15 15 15 16 16 16 16 16 16 16 16 16 16 16 16 16
11 11 11 11 12 12 12 12 13 13 13 14 14 14 15 15 15 14 14 13 13 13 13 14 14 14 14 14 14 15 15 15 16 16 16 16 16 16 16 16 16 16 16
11 11 11 11 11 11 11 11 11 12 12 13 13 13 14 14 14 14 14 14 13 13 13 13 13 13 13 13 13 14 14 14 15 15 15 15 15 15 15 16 16 16 16
11 10 10 10 10 10 10 10 10 11 11 12 12 12 13 13 13 14 14 13 13 13 13 13 13 13 13 13 13 13 13 14 14 14 14 14 15 15 15 15 15 15 15
10 10 10 10 10 9 9 10 10 10 10 11 11 12 12 13 13 13 13 13 13 13 13 13 13 13 13 13 12 12 12 12 13 13 13 14 14 14 14 14 14 14 15
10 10 10 10 10 9 9 9 9 9 9 10 10 11 11 12 12 13 13 13 13 13 13 12 13 13 12 12 12 12 12 12 12 12 12 13 13 13 13 13 13 14 14
10 10 10 10 9 9 9 9 9 9 9 9 9 10 10 11 11 12 12 13 13 13 13 12 12 12 12 12 12 12 11 11 11 11 12 12 12 12 12 12 12 13 13
10 10 10 9 9 9 9 9 9 9 9 9 9 9 10 10 11 11 11 12 12 12 12 12 12 12 12 12 12 11 11 11 11 11 11 11 11 11 12 12 12 12 12
10 10 9 9 9 9 9 9 9 9 8 9 9 9 9 10 10 11 11 11 12 12 12 12 12 12 12 12 12 12 11 11 10 10 11 11 11 11 11 11 11 11 11
9 9 9 9 9 9 9 9 8 8 8 8 8 9 9 10 10 10 11 11 11 12 12 12 12 12 12 12 12 11 11 11 11 10 10 10 10 10 10 10 10 10 11
9 9 9 9 9 9 8 8 8 8 8 8 8 8 9 9 10 10 10 11 11 11 12 12 12 12 13 13 12 12 11 11 11 10 10 10 10 10 10 10 10 10 10
8 8 8 8 8 8 8 8 8 8 8 8 8 8 8 9 9 9 10 10 11 11 11 12 12 12 12 12 12 11 11 11 10 9 10 10 9 9 9 9 9 9 9
6 7 7 7 8 8 8 8 8 7 7 8 8 8 8 8 9 9 9 10 10 11 11 11 11 11 12 11 11 11 11 11 11 9 9 10 9 9 8 8 8 8 8
Wind_Speed
7 4 6 7 8 8 7 6 6 6 6 7 8 8 9 10 12 12 12 16 18 17 17 16 16 17 19 22 23 24 24 24 24 25 25 24 24 23 23 22 22 21 20
7 6 6 5 6 7 7 6 5 5 4 4 5 6 7 8 10 11 12 13 15 16 17 16 15 16 17 18 20 22 22 23 24 25 26 26 26 25 25 25 24 24 23
9 7 6 5 5 6 6 4 3 2 3 3 4 5 5 6 7 9 11 11 12 14 16 16 15 17 17 17 19 19 20 21 22 24 26 26 27 27 26 26 26 26 26
11 6 5 6 5 4 3 3 2 2 2 3 3 4 4 4 6 8 9 10 10 11 13 15 16 17 18 18 18 17 18 19 21 23 25 26 26 27 27 27 27 27 27
9 6 6 5 5 3 3 3 2 2 3 3 4 4 4 4 5 6 7 8 10 11 11 13 15 17 18 18 17 18 18 19 20 21 23 24 26 26 27 27 27 27 28
8 6 5 5 5 4 3 3 3 2 2 2 2 3 3 4 4 5 6 6 7 9 10 10 10 12 16 18 18 19 20 21 20 21 21 21 22 24 25 26 27 27 27
6 5 5 5 5 5 5 5 3 2 2 1 0 2 3 2 2 2 3 3 3 5 6 7 8 9 10 14 17 19 20 21 22 22 21 19 19 21 23 25 26 26 27
5 5 5 5 5 4 5 5 4 3 2 2 2 0 2 3 2 2 1 1 2 2 3 5 6 7 9 9 12 16 19 21 23 23 21 20 19 20 21 22 23 24 25
2 2 3 4 5 5 5 6 5 5 4 2 2 3 2 2 2 2 2 2 2 2 3 4 5 6 7 8 9 13 16 18 20 21 21 20 20 20 22 21 21 22 24
5 4 2 2 3 4 5 5 6 4 5 3 2 2 2 2 1 2 3 2 3 4 4 5 5 6 6 6 8 11 13 15 17 18 19 19 19 19 19 19 20 21 23
5 5 3 2 2 2 4 4 5 6 5 5 4 3 2 1 2 3 3 3 3 4 4 5 5 4 5 5 5 7 10 11 12 14 15 16 17 17 18 19 21 21 21
2 4 4 4 3 2 3 4 5 6 6 6 5 4 4 3 3 4 5 4 4 4 4 4 3 3 4 4 4 3 5 6 7 8 10 11 12 14 16 18 19 19 20
2 3 3 3 3 3 3 3 4 5 7 7 7 6 6 5 4 4 4 4 4 3 3 2 2 2 3 3 3 3 1 2 3 4 5 6 7 9 11 13 15 15 16
4 4 3 3 4 4 4 3 3 5 5 7 8 7 6 7 6 5 4 3 3 3 2 3 1 1 2 3 4 5 5 4 4 4 3 3 2 3 4 6 8 9 11
5 5 4 4 4 4 4 4 3 4 5 6 7 7 7 6 6 7 6 5 4 3 3 2 1 0 1 2 4 5 5 8 8 7 7 6 5 3 2 2 4 6 7
6 6 6 5 5 5 4 4 4 4 4 5 5 7 7 6 6 6 7 7 7 5 5 2 2 1 1 2 5 6 7 10 11 10 10 9 8 7 6 4 3 2 2
8 8 7 6 6 6 5 4 5 5 5 5 5 6 7 7 6 6 6 7 7 7 7 4 2 2 2 4 4 6 7 7 9 12 12 12 12 11 11 10 9 8 8
9 9 8 8 8 8 7 6 7 6 5 6 6 6 7 6 7 7 7 8 8 8 8 7 4 3 2 5 6 6 5 7 9 13 14 14 14 14 14 14 14 14 13
11 10 9 10 10 9 8 8 8 7 7 7 6 6 7 7 7 6 7 8 7 7 8 6 5 3 2 4 6 6 7 6 8 11 14 15 16 17 17 17 17 17 17
11 11 11 11 11 10 10 9 8 8 8 8 7 7 8 8 9 8 8 9 8 8 8 7 6 4 4 5 6 6 6 5 5 7 11 12 15 17 17 17 17 18 19
13 12 11 11 11 10 10 10 10 10 9 8 8 8 8 10 12 10 8 8 9 8 8 8 7 6 6 7 7 5 7 7 5 4 6 7 7 9 11 14 15 17 18
12 11 11 12 11 10 13 15 12 9 9 9 9 9 9 10 12 13 14 13 13 11 11 9 8 9 9 9 8 10 9 7 4 3 5 6 6 8 7 10 13 16 18
11 11 11 11 12 13 15 15 16 10 10 9 10 9 9 9 10 9 11 13 14 16 14 11 11 12 12 13 13 12 10 7 5 7 6 5 5 8 7 11 14 16 17
9 10 10 11 11 12 15 16 15 11 10 10 11 11 10 10 10 9 9 9 10 12 14 13 11 12 12 13 14 12 12 9 8 5 4 5 4 5 6 9 12 15 16
9 9 8 10 10 12 14 15 13 7 8 11 11 11 11 11 12 12 10 10 10 9 11 13 12 12 15 17 16 13 13 13 8 4 2 5 5 5 5 6 9 13 14
10 9 9 9 10 11 13 14 12 7 8 9 9 9 12 13 13 13 11 10 11 9 9 10 10 13 15 18 19 16 15 14 10 6 4 5 8 5 5 3 4 7 10
Wind_Direction
237 233 237 241 243 243 244 246 240 237 234 235 236 239 241 240 242 239 242 246 248 246 246 245 241 237 235 233 230 225 223 222 220 218 216 216 216 215 215 215 214 213 212
231 233 238 239 240 238 237 235 232 230 230 228 238 240 243 244 246 245 245 247 250 250 248 246 241 236 235 236 232 227 226 226 224 222 220 219 218 218 217 216 216 214 214
232 226 230 238 235 235 231 226 225 221 230 231 245 252 249 248 249 249 250 250 251 249 248 248 244 242 239 237 233 229 227 228 228 227 224 222 221 219 219 219 218 217 216
230 220 222 231 229 221 209 201 190 194 222 233 249 259 256 255 255 256 254 253 252 252 251 250 248 246 245 242 233 230 229 230 232 231 228 226 224 222 221 221 221 220 219
227 214 219 221 212 200 201 199 188 186 205 227 247 254 256 258 261 262 256 253 251 250 251 255 254 251 250 245 235 231 230 231 233 233 232 229 226 224 223 223 223 222 221
225 211 210 207 193 188 193 188 183 186 200 218 257 272 273 270 265 259 259 260 258 256 255 256 257 257 253 246 238 233 231 229 227 230 233 233 230 226 224 223 223 223 223
229 214 211 196 189 190 193 183 169 175 191 172 187 315 314 291 276 262 263 259 264 269 267 262 258 255 256 250 243 237 233 229 228 227 227 228 230 229 227 226 223 223 224
244 224 208 202 196 190 188 183 169 163 178 168 157 115 340 342 344 353 326 285 306 306 300 289 270 258 252 251 247 239 232 230 229 227 225 223 223 225 226 226 225 224 225
303 291 247 219 203 194 198 197 183 174 181 190 184 163 166 236 306 321 328 330 324 314 312 309 295 282 265 251 250 245 239 232 230 230 229 226 223 225 226 225 225 225 225
16 9 325 258 231 217 213 209 196 186 169 184 196 207 191 170 188 306 313 317 316 303 309 308 305 298 283 263 252 247 243 236 235 233 230 226 223 223 223 224 228 228 226
12 11 1 341 291 251 241 227 204 199 190 182 179 175 182 192 199 220 275 306 314 293 292 297 300 301 303 287 267 255 245 238 233 230 230 229 227 224 222 225 230 229 226
350 357 1 355 335 298 264 248 230 214 209 200 190 184 178 180 190 201 237 270 293 292 297 297 301 308 315 314 298 277 246 233 228 225 227 229 228 226 225 225 229 229 228
308 316 334 328 327 316 291 261 242 237 221 213 207 206 205 209 191 188 217 252 272 288 294 291 293 312 331 350 359 5 351 224 212 213 219 223 225 227 229 228 230 232 231
252 269 279 287 293 301 308 289 256 245 237 229 224 215 213 217 207 201 201 215 264 273 263 266 298 343 11 24 36 44 55 75 96 103 117 134 166 204 220 225 234 236 236
248 253 260 273 280 282 285 292 271 258 245 239 236 228 222 219 212 213 209 207 219 256 272 247 238 79 74 58 56 62 65 74 81 86 91 94 95 97 120 187 224 229 231
241 250 257 261 268 271 270 266 268 271 258 247 238 234 232 224 216 214 212 212 213 225 250 239 224 190 120 99 87 84 81 76 74 78 80 82 84 82 82 84 91 113 155
237 238 245 250 257 262 263 259 259 259 259 261 258 245 240 228 219 217 212 211 213 216 240 243 219 181 152 137 111 95 87 78 74 75 78 77 78 78 76 76 79 84 84
240 237 239 241 247 251 248 246 255 256 250 253 254 254 255 244 229 218 213 215 215 213 222 232 213 188 167 150 130 114 100 90 84 78 78 77 76 77 77 77 78 78 79
242 240 234 238 242 243 243 242 243 248 247 247 248 246 251 250 246 231 221 220 218 215 212 214 205 182 153 145 132 117 107 99 91 84 78 75 75 76 76 77 79 81 82
238 240 237 236 238 239 241 241 239 241 245 246 246 246 247 244 245 239 230 225 218 214 209 206 198 179 160 150 143 138 124 105 95 85 79 76 75 74 73 76 80 83 84
239 237 237 238 236 235 239 236 235 238 238 244 249 250 250 249 245 240 235 224 213 212 208 203 194 181 171 164 159 149 137 120 87 90 91 72 71 70 68 69 77 84 87
239 234 232 234 235 235 233 230 228 232 234 239 250 256 258 260 255 247 239 225 211 209 208 203 197 190 182 171 157 153 147 143 130 127 102 79 71 73 66 73 81 88 90
237 232 233 232 234 235 234 236 236 230 234 239 244 252 260 259 249 249 245 232 221 214 208 203 199 193 181 173 163 162 162 151 134 146 120 92 77 75 66 71 83 90 94
240 233 233 230 231 239 238 237 238 234 235 241 243 245 249 257 252 241 242 236 229 221 215 213 210 196 182 172 167 160 147 122 109 118 117 110 104 88 75 68 76 92 98
247 236 232 231 231 240 239 237 235 229 234 242 244 244 243 250 246 232 232 232 229 224 217 207 199 183 167 159 154 146 145 142 137 137 120 118 129 109 85 69 68 88 98
250 245 239 233 231 237 240 238 231 224 234 244 247 246 241 241 241 228 226 223 223 215 193 185 177 165 162 159 158 161 160 155 147 146 157 133 147 134 106 81 75 90 97
Height
1528 1528 1529 1530 1530 1530 1530 1531 1531 1531 1532 1532 1532 1533 1533 1534 1535 1535 1536 1537 1538 1539 1541 1542 1544 1545 1547 1549 1551 1553 1555 1557 1559 1562 1564 1566 1568 1571 1573 1575 1577 1579 1581
1524 1525 1525 1526 1526 1526 1526 1526 1527 1527 1527 1528 1528 1529 1529 1530 1531 1531 1532 1533 1534 1535 1537 1538 1539 1541 1543 1544 1546 1548 1550 1552 1555 1557 1559 1562 1564 1566 1569 1571 1573 1575 1577
1519 1521 1521 1522 1522 1522 1522 1522 1522 1523 1523 1524 1524 1524 1525 1526 1526 1527 1528 1529 1530 1531 1532 1533 1535 1536 1538 1539 1541 1543 1545 1547 1550 1552 1554 1557 1559 1562 1564 1567 1569 1572 1574
1515 1516 1517 1518 1519 1519 1518 1518 1518 1519 1519 1519 1520 1520 1521 1521 1522 1522 1523 1524 1524 1525 1526 1528 1529 1531 1532 1534 1535 1537 1539 1541 1544 1547 1549 1551 1554 1556 1559 1562 1564 1567 1570
1511 1513 1514 1515 1516 1515 1515 1515 1515 1515 1515 1516 1516 1516 1516 1516 1517 1517 1518 1519 1519 1520 1520 1522 1523 1524 1526 1528 1530 1532 1534 1536 1538 1541 1543 1546 1548 1551 1554 1556 1559 1562 1565
1507 1509 1510 1511 1512 1512 1512 1512 1512 1512 1512 1512 1512 1512 1512 1512 1512 1513 1513 1514 1514 1515 1515 1516 1517 1518 1520 1522 1524 1526 1528 1530 1532 1535 1538 1540 1542 1545 1548 1550 1554 1556 1559
1504 1506 1507 1508 1508 1509 1510 1510 1509 1509 1509 1509 1509 1509 1508 1508 1508 1509 1509 1510 1510 1511 1511 1511 1512 1513 1514 1516 1518 1520 1522 1524 1526 1529 1531 1534 1536 1539 1542 1544 1547 1550 1553
1500 1502 1503 1504 1506 1506 1507 1507 1507 1507 1506 1507 1507 1506 1506 1506 1505 1506 1507 1507 1507 1507 1507 1507 1508 1509 1509 1511 1512 1514 1516 1517 1520 1522 1525 1527 1530 1533 1536 1538 1541 1544 1547
1496 1498 1499 1501 1502 1503 1503 1503 1504 1504 1504 1504 1504 1505 1504 1503 1503 1504 1504 1504 1504 1504 1504 1504 1504 1504 1505 1506 1507 1508 1510 1512 1514 1516 1518 1521 1523 1526 1529 1532 1535 1538 1541
1492 1493 1494 1496 1497 1498 1499 1499 1500 1501 1501 1501 1501 1501 1502 1501 1501 1501 1501 1501 1501 1501 1500 1499 1500 1500 1501 1502 1502 1503 1505 1507 1509 1511 1513 1515 1517 1520 1522 1525 1528 1531 1534
1488 1488 1489 1490 1491 1492 1493 1494 1495 1496 1497 1497 1497 1498 1498 1498 1498 1499 1498 1498 1498 1497 1496 1496 1495 1496 1497 1497 1498 1499 1500 1502 1503 1505 1507 1509 1511 1514 1516 1519 1521 1524 1527
1484 1484 1484 1484 1484 1485 1486 1488 1489 1490 1491 1492 1492 1494 1494 1495 1495 1495 1495 1494 1493 1493 1493 1492 1492 1492 1493 1494 1494 1495 1496 1497 1499 1501 1502 1504 1506 1507 1510 1512 1514 1517 1520
1479 1479 1478 1478 1478 1479 1479 1480 1482 1483 1485 1486 1487 1488 1490 1491 1491 1491 1492 1491 1490 1489 1489 1489 1489 1489 1489 1490 1490 1491 1492 1493 1495 1496 1498 1499 1501 1502 1504 1506 1508 1510 1513
1475 1474 1473 1473 1472 1472 1472 1473 1474 1476 1477 1479 1480 1482 1484 1485 1486 1487 1488 1488 1487 1487 1486 1486 1486 1486 1486 1486 1487 1488 1489 1490 1491 1492 1493 1495 1496 1497 1499 1500 1502 1504 1506
1470 1469 1468 1467 1467 1466 1466 1466 1467 1468 1470 1471 1473 1475 1477 1479 1481 1482 1483 1484 1485 1484 1483 1483 1483 1483 1483 1484 1484 1485 1485 1486 1487 1488 1489 1490 1491 1493 1493 1494 1496 1498 1499
1465 1464 1463 1462 1461 1461 1461 1460 1461 1461 1463 1464 1466 1468 1469 1472 1474 1476 1478 1479 1480 1481 1480 1480 1481 1481 1481 1481 1482 1482 1483 1484 1484 1485 1486 1487 1487 1488 1489 1490 1491 1492 1494
1459 1458 1458 1457 1456 1456 1455 1455 1455 1455 1456 1457 1459 1460 1462 1465 1467 1470 1472 1473 1474 1475 1476 1476 1478 1478 1479 1479 1479 1480 1481 1481 1482 1483 1483 1484 1484 1485 1485 1486 1487 1488 1490
1452 1452 1451 1451 1450 1450 1450 1449 1449 1449 1450 1451 1452 1453 1455 1457 1460 1463 1465 1467 1468 1470 1471 1472 1473 1475 1475 1476 1477 1478 1479 1480 1481 1481 1482 1482 1482 1483 1483 1484 1485 1486 1487
1445 1444 1444 1444 1444 1444 1444 1444 1444 1444 1444 1445 1445 1446 1448 1450 1452 1455 1458 1460 1462 1464 1465 1467 1469 1471 1472 1473 1475 1476 1478 1479 1480 1480 1481 1481 1482 1482 1483 1483 1484 1485 1486
1436 1436 1436 1436 1436 1437 1437 1437 1437 1437 1438 1438 1439 1440 1441 1443 1445 1448 1450 1453 1455 1457 1459 1461 1463 1466 1468 1470 1472 1474 1476 1478 1479 1480 1481 1482 1482 1483 1483 1484 1485 1486 1486
1427 1427 1428 1428 1428 1429 1429 1430 1430 1431 1431 1432 1433 1434 1435 1436 1438 1441 1443 1446 1448 1450 1453 1455 1458 1460 1463 1466 1468 1471 1474 1476 1478 1480 1481 1482 1483 1483 1484 1485 1486 1487 1488
1417 1418 1418 1419 1420 1421 1422 1423 1423 1423 1424 1425 1426 1427 1428 1429 1431 1433 1436 1438 1441 1443 1446 1449 1451 1454 1457 1461 1464 1468 1471 1474 1476 1479 1481 1482 1484 1484 1485 1486 1487 1489 1489
1408 1408 1409 1410 1411 1413 1414 1415 1416 1416 1417 1418 1419 1420 1420 1422 1424 1426 1428 1430 1432 1435 1439 1442 1445 1448 1452 1455 1459 1464 1468 1472 1474 1477 1480 1481 1484 1485 1487 1488 1489 1490 1491
1397 1398 1400 1401 1403 1404 1406 1407 1408 1409 1410 1410 1411 1412 1413 1414 1416 1418 1420 1422 1425 1428 1431 1435 1438 1442 1447 1451 1456 1460 1464 1469 1473 1477 1480 1481 1484 1485 1488 1489 1491 1492 1493
1387 1388 1390 1392 1394 1396 1398 1400 1401 1401 1402 1403 1404 1405 1406 1407 1409 1411 1413 1415 1418 1421 1425 1429 1433 1437 1442 1447 1451 1456 1461 1465 1470 1475 1478 1480 1483 1485 1488 1490 1492 1494 1495
1377 1379 1381 1383 1385 1388 1390 1392 1393 1394 1394 1395 1397 1398 1399 1400 1402 1404 1406 1408 1411 1414 1418 1423 1427 1431 1436 1441 1447 1452 1456 1461 1466 1472 1476 1478 1482 1484 1489 1492 1493 1495 1497